Gulkana, AK

11:16 AM AKDT on July 28, 2017 (GMT -0800)
Gulkana

Weather History for PAGK - February, 2013

Change the Weather History Date:

Sunday, February 24, 2013

  Actual Average Record
Temperature  
Mean Temperature 4 °F -  
Max Temperature 18 °F 20 °F 42 °F (1963)
Min Temperature -11 °F -1 °F -37 °F (1976)
Degree Days  
Heating Degree Days 62    
Moisture  
Dew Point 0 °F    
Average Humidity 84    
Maximum Humidity 96    
Minimum Humidity 56    
Precipitation  
Precipitation 0.00 in - - ()
Snow  
Snow 0.00 in - - ()
Snow Depth 10.00 in    
Sea Level Pressure  
Sea Level Pressure 29.62 in    
Wind  
Wind Speed 4 mph (NNW)    
Max Wind Speed 7 mph    
Max Gust Speed -    
Visibility 9 miles    
Events      
Averages and records for this station are not official NWS values.
T = Trace of Precipitation, MM = Missing Value Source: NWS Daily Summary

Daily Weather History Graph

Daily Weather History Graph

Search for Another Location

Airport or City:

Trip Planner

Search our weather history database for the weather conditions in past years. The results will help you decide how hot, cold, wet, or windy it might be!

Date:

Astronomy

Feb. 24, 2013 Rise Set
Actual Time 7:58 AM AKST 5:52 PM AKST
Civil Twilight 7:13 AM AKST 6:37 PM AKST
Nautical Twilight 6:22 AM AKST 7:29 PM AKST
Astronomical Twilight 5:30 AM AKST 8:21 PM AKST
Moon 5:15 PM AKST (2/24) 7:05 AM AKST (2/24)
Length of Visible Light 11h 24m
Length of Day
9h 53m
Waxing Gibbous, 99% of the Moon is Illuminated
Feb 24
Waxing Gibbous
Feb 25
Full
Mar 4
Last Quarter
Mar 11
New
Mar 19
First Quarter

Hourly Weather History & Observations

Time (AKST) Temp. Windchill Dew Point Humidity Pressure Visibility Wind Dir Wind Speed Gust Speed Precip Events Conditions
12:53 AM -7.1 °F -18.1 °F -9.9 °F 87% 29.49 in 10.0 mi WNW 4.6 mph - N/A   Clear
1:53 AM -4.0 °F -14.6 °F -7.1 °F 87% 29.49 in 10.0 mi WNW 4.6 mph - N/A   Clear
3:53 AM -4.0 °F -12.4 °F -9.0 °F 79% 29.51 in 10.0 mi WNW 3.5 mph - N/A   Clear
4:53 AM -5.1 °F -13.6 °F -9.0 °F 83% 29.53 in 10.0 mi NW 3.5 mph - N/A   Clear
5:53 AM -7.1 °F - -9.9 °F 87% 29.56 in 10.0 mi Calm Calm - N/A   Clear
6:00 AM -7.1 °F -15.9 °F -11.0 °F 83% 29.39 in 10.0 mi NNW 3.5 mph - N/A   Scattered Clouds
6:53 AM -9.9 °F -19.2 °F -14.1 °F 82% 29.60 in 10.0 mi WNW 3.5 mph - N/A   Scattered Clouds
7:53 AM -11.0 °F -20.4 °F -15.0 °F 83% 29.63 in 10.0 mi NW 3.5 mph - N/A   Scattered Clouds
8:53 AM -2.9 °F - -7.1 °F 82% 29.62 in 10.0 mi Calm Calm - N/A   Mostly Cloudy
9:14 AM -2.0 °F - -6.0 °F 83% 29.45 in 10.0 mi Calm Calm - N/A   Overcast
9:53 AM 1.9 °F -7.6 °F -2.9 °F 80% 29.63 in 10.0 mi NNE 4.6 mph - N/A   Overcast
10:37 AM 3.0 °F -6.4 °F 1.0 °F 91% 29.48 in 7.0 mi North 4.6 mph - N/A   Overcast
10:53 AM 3.9 °F -3.4 °F 1.9 °F 91% 29.65 in 7.0 mi NNE 3.5 mph - N/A   Overcast
11:26 AM 6.1 °F -2.8 °F 3.9 °F 91% 29.49 in 2.0 mi North 4.6 mph - N/A   Overcast
11:39 AM 7.0 °F -1.7 °F 5.0 °F 92% 29.49 in 0.8 mi North 4.6 mph - 0.00 in   Overcast
11:53 AM 7.0 °F 0.1 °F 5.0 °F 92% 29.67 in 0.8 mi North 3.5 mph - 0.00 in   Overcast
12:08 PM 8.1 °F 1.4 °F 6.1 °F 92% 29.51 in 2.0 mi NNW 3.5 mph - N/A   Overcast
12:37 PM 10.0 °F 1.8 °F 7.0 °F 87% 29.51 in 4.0 mi NNE 4.6 mph - N/A   Overcast
12:53 PM 10.0 °F 0.4 °F 8.1 °F 92% 29.69 in 10.0 mi NNE 5.8 mph - N/A   Overcast
1:11 PM 10.9 °F 1.4 °F 7.0 °F 84% 29.51 in 10.0 mi North 5.8 mph - N/A   Overcast
1:53 PM 14.0 °F 6.5 °F 10.9 °F 88% 29.67 in 10.0 mi North 4.6 mph - N/A   Overcast
2:53 PM 17.1 °F 8.7 °F 8.1 °F 68% 29.68 in 10.0 mi North 5.8 mph - N/A   Mostly Cloudy
3:53 PM 18.0 °F 9.8 °F 10.0 °F 71% 29.68 in 10.0 mi North 5.8 mph - N/A   Mostly Cloudy
4:53 PM 16.0 °F 8.8 °F 10.0 °F 77% 29.69 in 10.0 mi NW 4.6 mph - N/A   Mostly Cloudy
5:53 PM 15.1 °F 6.4 °F 9.0 °F 77% 29.71 in 10.0 mi NW 5.8 mph - N/A   Mostly Cloudy
6:53 PM 7.0 °F - 6.1 °F 96% 29.75 in 10.0 mi Calm Calm - N/A   Mostly Cloudy
7:53 PM 3.0 °F - -0.0 °F 87% 29.77 in 10.0 mi Calm Calm - N/A   Mostly Cloudy
8:53 PM 3.9 °F -3.4 °F 1.9 °F 91% 29.77 in 10.0 mi WNW 3.5 mph - N/A   Mostly Cloudy
9:26 PM 3.9 °F -3.4 °F 1.9 °F 91% 29.60 in 10.0 mi NW 3.5 mph - N/A   Mostly Cloudy
9:53 PM 1.9 °F -7.6 °F -0.9 °F 88% 29.78 in 10.0 mi WNW 4.6 mph - N/A   Clear
10:53 PM 3.9 °F -5.3 °F 1.0 °F 88% 29.79 in 10.0 mi NW 4.6 mph - N/A   Clear
11:53 PM 1.9 °F -10.6 °F -0.9 °F 88% 29.80 in 10.0 mi NW 6.9 mph - N/A   Clear